Location: Praha
(50.0830°N, 14.4670°E)
Time: 14:58:16
(UTC+01:00)

ISS - Pass Details

Date: 09 December 2018
Orbit: 401 x 408 km, 51.6° (Epoch: 12 December)

Event Time Altitude Azimuth Distance (km) Brightness Sun altitude
Rises 18:20:14 0° 287° (WNW) 2,319 1.1 -21.3°
Reaches altitude 10° 18:22:26 10° 277° (W) 1,456 0.0 -21.7°
Maximum altitude 18:25:23 32° 212° (SSW) 717 -2.3 -22.2°
Enters shadow 18:25:44 31° 198° (SSW) 732 -2.4 -22.2°
